Regional Weather Roundup
Issued by NWS Binghamton, NY

Home | Current Version | Previous Version | Text Only | Print | Product List | Glossary On
Versions: 1 2 3 4 5 6 7 8 9 10 11 12 13 14 15 16 17 18 19 20 21 22 23 24 25 26 27 28 29 30 31 32 33 34 35 36 37 38 39 40 41 42 43 44 45 46 47 48 49 50
000
ASUS41 KBGM 011710
RWRBGM

REGIONAL WEATHER ROUNDUP
NATIONAL WEATHER SERVICE BINGHAMTON NY
100 PM EDT SAT OCT 01 2016

Note: "fair" indicates few or no clouds below 12,000 feet with no
significant weather and/or obstructions to visibility.

* = Station(s) that does not report precipitation, such as rain,
snow, etc, also no thunder or fog.

NYZ009-015>018-022>025-036-037-044>046-055>057-062-011800
...Central New York...

CITY           SKY/WX    TMP DP  RH WIND       PRES   REMARKS
Binghamton     CLOUDY    58  55  90 E8        30.19F
Cortland       CLOUDY    59  55  88 SE5       30.20F
Dansville      PTSUNNY   68  58  70 S9        30.13F
Elmira         CLOUDY    59  54  83 E5        30.16F
Ithaca         CLOUDY    59  55  87 E7        30.19F
Hamilton       CLOUDY    64  55  72 CALM      30.20F
Hornell        CLOUDY    64  57  77 SE8       30.16F
Monticello     CLOUDY    54  54 100 E9        30.24S
Norwich        CLOUDY    63  55  77 S3        30.20F
Oneonta        CLOUDY    61  54  77 E5        30.21F
Penn Yan       CLOUDY    60  55  83 VRB3      30.17F
Rome           CLOUDY    59  52  77 SE14G23   30.24F
Sidney         CLOUDY    63  63 100 CALM      30.19F
Syracuse       CLOUDY    61  54  76 E10       30.19F
$$

PAZ038>040-043-044-047-048-072-011800
...Northeast Pennsylvania...

CITY           SKY/WX    TMP DP  RH WIND       PRES   REMARKS
Hazleton       CLOUDY    57  55  94 E7        30.21
Scranton       CLOUDY    63  56  78 VRB3      30.18F
$$
&&
KEY
WCI = Wind Chill Index
VSB = Visibility
HX  = Heat Index
$$



USA.gov is the U.S. government's official web portal to all federal, state and local government web resources and services.